Weather History for Philadelphia Wings Airport, PA

Change the Weather History Date:

Saturday, March 16, 2013

  Actual Average (KPNE) Record (KPNE)
Temperature  
Mean Temperature 40 °F -  
Max Temperature 46 °F 47 °F 70 °F (2002)
Min Temperature 33 °F 31 °F 26 °F (1997)
Degree Days  
Heating Degree Days 26    
Moisture  
Dew Point 30 °F    
Average Humidity 77    
Maximum Humidity 93    
Minimum Humidity 52    
Precipitation  
Precipitation 0.08 in - - ()
Sea Level Pressure  
Sea Level Pressure 29.81 in    
Wind  
Wind Speed 4 mph (NNE)    
Max Wind Speed 10 mph    
Max Gust Speed -    
Visibility 7 miles    
Events      
Averages and records for this station are not official NWS values.
T = Trace of Precipitation, MM = Missing Value Source: NWS Daily Summary

Daily Weather History Graph

Daily Weather History Graph

Search for Another Location

Airport:

Trip Planner

Search our weather history database for the weather conditions in past years. The results will help you decide how hot, cold, wet, or windy it might be!

Date:

Astronomy

Mar. 16, 2013 Rise Set
Actual Time 7:10 AM EDT 7:09 PM EDT
Civil Twilight 6:43 AM EDT 7:36 PM EDT
Nautical Twilight 6:12 AM EDT 8:07 PM EDT
Astronomical Twilight 5:40 AM EDT 8:39 PM EDT
Moon 9:38 AM EDT (3/16) No Moon Set
Length of Visible Light 12h 52m
Length of Day
11h 58m
Waxing Crescent, 23% of the Moon is Illuminated
Mar 16
Waxing Crescent
Mar 19
First Quarter
Mar 27
Full
Apr 3
Last Quarter
Apr 10
New

Hourly Weather History & Observations

Time (EDT) Temp. Windchill Dew Point Humidity Pressure Visibility Wind Dir Wind Speed Gust Speed Precip Events Conditions
12:15 AM 46.4 °F - 32.0 °F 57% 29.77 in 10.0 mi Calm Calm - N/A   Overcast
12:35 AM 46.4 °F 44.3 °F 32.0 °F 57% 29.78 in 10.0 mi NW 4.6 mph - N/A   Overcast
12:55 AM 46.4 °F 45.2 °F 32.0 °F 57% 29.78 in 10.0 mi NW 3.5 mph - N/A   Overcast
1:15 AM 46.4 °F 45.2 °F 32.0 °F 57% 29.77 in 10.0 mi NNW 3.5 mph - N/A   Overcast
1:35 AM 46.4 °F 41.9 °F 32.0 °F 57% 29.78 in 10.0 mi NW 9.2 mph - N/A   Overcast
1:55 AM 46.4 °F 45.2 °F 32.0 °F 57% 29.78 in 10.0 mi NW 3.5 mph - N/A   Overcast
2:15 AM 46.4 °F 45.2 °F 32.0 °F 57% 29.79 in 10.0 mi NNW 3.5 mph - N/A   Overcast
2:35 AM 44.6 °F 42.2 °F 32.0 °F 61% 29.79 in 10.0 mi NW 4.6 mph - N/A   Overcast
2:55 AM 44.6 °F 43.1 °F 32.0 °F 61% 29.80 in 10.0 mi NNW 3.5 mph - N/A   Overcast
3:15 AM 44.6 °F 42.2 °F 32.0 °F 61% 29.80 in 10.0 mi NNW 4.6 mph - N/A   Overcast
3:35 AM 44.6 °F 40.7 °F 30.2 °F 57% 29.80 in 10.0 mi NNW 6.9 mph - N/A   Overcast
3:55 AM 42.8 °F 39.3 °F 30.2 °F 61% 29.80 in 10.0 mi NNW 5.8 mph - N/A   Overcast
4:15 AM 42.8 °F 40.1 °F 30.2 °F 61% 29.80 in 10.0 mi NNW 4.6 mph - N/A   Overcast
4:35 AM 42.8 °F 40.1 °F 28.4 °F 57% 29.80 in 10.0 mi North 4.6 mph - N/A   Overcast
4:55 AM 42.8 °F 40.1 °F 28.4 °F 57% 29.80 in 10.0 mi North 4.6 mph - N/A   Overcast
5:15 AM 42.8 °F 41.1 °F 28.4 °F 57% 29.80 in 10.0 mi North 3.5 mph - N/A   Overcast
5:35 AM 42.8 °F 40.1 °F 28.4 °F 57% 29.81 in 10.0 mi North 4.6 mph - N/A   Overcast
6:15 AM 41.0 °F 37.1 °F 28.4 °F 61% 29.81 in 10.0 mi NNE 5.8 mph - N/A   Overcast
6:35 AM 41.0 °F - 26.6 °F 57% 29.82 in 10.0 mi Calm Calm - N/A   Overcast
6:55 AM 41.0 °F 39.0 °F 26.6 °F 57% 29.82 in 10.0 mi NNE 3.5 mph - N/A   Overcast
7:15 AM 41.0 °F - 26.6 °F 57% 29.83 in 10.0 mi Calm Calm - N/A   Overcast
7:35 AM 39.2 °F - 26.6 °F 61% 29.83 in 10.0 mi Calm Calm - N/A   Scattered Clouds
7:55 AM 39.2 °F 35.0 °F 26.6 °F 61% 29.83 in 10.0 mi NE 5.8 mph - N/A   Scattered Clouds
8:15 AM 39.2 °F 35.0 °F 26.6 °F 61% 29.83 in 10.0 mi NE 5.8 mph - N/A   Mostly Cloudy
8:35 AM 39.2 °F 33.6 °F 24.8 °F 56% 29.82 in 10.0 mi ENE 8.1 mph - N/A   Mostly Cloudy
8:55 AM 37.4 °F 33.8 °F 24.8 °F 60% 29.83 in 10.0 mi ENE 4.6 mph - N/A   Mostly Cloudy
9:15 AM 39.2 °F - 23.0 °F 52% 29.83 in 10.0 mi Calm Calm - N/A   Overcast
9:35 AM 39.2 °F 35.0 °F 23.0 °F 52% 29.82 in 10.0 mi ENE 5.8 mph - N/A   Scattered Clouds
9:55 AM 37.4 °F 34.9 °F 24.8 °F 60% 29.83 in 10.0 mi East 3.5 mph - N/A   Mostly Cloudy
10:15 AM 37.4 °F - 26.6 °F 65% 29.84 in 7.0 mi Calm Calm - N/A   Overcast
10:35 AM 37.4 °F 33.8 °F 28.4 °F 70% 29.84 in 10.0 mi NE 4.6 mph - N/A   Overcast
10:55 AM 37.4 °F 34.9 °F 28.4 °F 70% 29.84 in 10.0 mi East 3.5 mph - N/A   Overcast
11:15 AM 35.6 °F 31.7 °F 30.2 °F 81% 29.84 in 5.0 mi NE 4.6 mph - N/A   Overcast
11:35 AM 35.6 °F - 30.2 °F 81% 29.83 in 3.0 mi Calm Calm - N/A   Overcast
11:55 AM 33.8 °F - 32.0 °F 93% 29.83 in 0.8 mi Calm Calm - 0.01 in   Overcast
12:15 PM 33.8 °F 29.6 °F 32.0 °F 93% 29.82 in 1.0 mi ENE 4.6 mph - N/A   Overcast
12:35 PM 33.8 °F 28.6 °F 32.0 °F 93% 29.81 in 3.0 mi ENE 5.8 mph - 0.01 in   Overcast
12:55 PM 33.8 °F 29.6 °F 32.0 °F 93% 29.81 in 5.0 mi ENE 4.6 mph - 0.01 in   Overcast
1:15 PM 33.8 °F 27.0 °F 32.0 °F 93% 29.78 in 7.0 mi ENE 8.1 mph - N/A   Overcast
1:35 PM 33.8 °F 27.7 °F 32.0 °F 93% 29.78 in 7.0 mi ENE 6.9 mph - N/A   Overcast
1:55 PM 33.8 °F 27.0 °F 32.0 °F 93% 29.78 in 10.0 mi ENE 8.1 mph - N/A   Overcast
2:15 PM 33.8 °F 27.7 °F 32.0 °F 93% 29.78 in 5.0 mi NE 6.9 mph - N/A   Overcast
2:35 PM 33.8 °F 29.6 °F 32.0 °F 93% 29.78 in 3.0 mi NE 4.6 mph - 0.01 in   Overcast
2:55 PM 33.8 °F 25.8 °F 32.0 °F 93% 29.76 in 4.0 mi East 10.4 mph - 0.01 in   Overcast
3:15 PM 33.8 °F 26.4 °F 32.0 °F 93% 29.75 in 1.5 mi East 9.2 mph - N/A   Overcast
3:35 PM 33.8 °F 28.6 °F 32.0 °F 93% 29.77 in 5.0 mi NNE 5.8 mph - N/A   Overcast
3:55 PM 33.8 °F 28.6 °F 32.0 °F 93% 29.76 in 5.0 mi ENE 5.8 mph - N/A   Overcast
4:15 PM 33.8 °F 28.6 °F 32.0 °F 93% 29.77 in 5.0 mi NE 5.8 mph - 0.02 in   Overcast
4:35 PM 33.8 °F 29.6 °F 32.0 °F 93% 29.77 in 2.5 mi NE 4.6 mph - 0.03 in   Overcast
4:55 PM 33.8 °F 29.6 °F 32.0 °F 93% 29.76 in 5.0 mi ENE 4.6 mph - 0.04 in   Overcast
5:15 PM 33.8 °F 27.7 °F 32.0 °F 93% 29.76 in 7.0 mi NE 6.9 mph - N/A   Overcast
5:35 PM 33.8 °F 30.8 °F 32.0 °F 93% 29.76 in 7.0 mi NE 3.5 mph - N/A   Overcast
5:55 PM 33.8 °F 28.6 °F 32.0 °F 93% 29.76 in 5.0 mi ENE 5.8 mph - N/A   Overcast
6:15 PM 33.8 °F 27.7 °F 32.0 °F 93% 29.77 in 7.0 mi NE 6.9 mph - N/A   Overcast
6:35 PM 33.8 °F 29.6 °F 32.0 °F 93% 29.77 in 7.0 mi ENE 4.6 mph - N/A   Overcast
6:55 PM 33.8 °F 29.6 °F 32.0 °F 93% 29.78 in 10.0 mi ENE 4.6 mph - N/A   Overcast
7:15 PM 33.8 °F 30.8 °F 32.0 °F 93% 29.79 in 7.0 mi NE 3.5 mph - N/A   Overcast
7:35 PM 33.8 °F - 32.0 °F 93% 29.80 in 7.0 mi Calm Calm - N/A   Overcast
7:55 PM 33.8 °F - 32.0 °F 93% 29.81 in 5.0 mi Calm Calm - N/A   Overcast
8:15 PM 33.8 °F - 32.0 °F 93% 29.83 in 4.0 mi Calm Calm - N/A   Overcast
8:35 PM 33.8 °F - 32.0 °F 93% 29.84 in 3.0 mi Calm Calm - N/A   Overcast
8:55 PM 33.8 °F 30.8 °F 32.0 °F 93% 29.85 in 2.5 mi NNE 3.5 mph - N/A   Overcast
9:15 PM 33.8 °F - 32.0 °F 93% 29.86 in 3.0 mi Calm Calm - N/A   Overcast
9:35 PM 33.8 °F - 32.0 °F 93% 29.86 in 3.0 mi Calm Calm - N/A   Overcast
9:55 PM 33.8 °F - 32.0 °F 93% 29.87 in 7.0 mi Calm Calm - N/A   Mostly Cloudy
10:15 PM 33.8 °F - 32.0 °F 93% 29.89 in 7.0 mi Calm Calm - N/A   Mostly Cloudy
10:35 PM 33.8 °F - 32.0 °F 93% 29.90 in 5.0 mi Calm Calm - N/A   Overcast
10:55 PM 33.8 °F - 32.0 °F 93% 29.91 in 7.0 mi Calm Calm - N/A   Overcast
11:15 PM 33.8 °F - 32.0 °F 93% 29.91 in 7.0 mi Calm Calm - N/A   Mostly Cloudy
11:35 PM 33.8 °F - 32.0 °F 93% 29.92 in 5.0 mi Calm Calm - 0.01 in   Scattered Clouds
11:55 PM 33.8 °F 30.8 °F 32.0 °F 93% 29.92 in 5.0 mi West 3.5 mph - 0.01 in   Mostly Cloudy